Retour au catalogue

STARLINK-34012

ActifCommunicationsVLEO
NORAD 63926·PAYLOAD·🇺🇸 United States

Lancé May 13, 2025 depuis Vandenberg Space Force Base

Loading…

Prochains Passages (prochaines 24 heures)

TLE

FraisSource: CelesTrak SupGP

Époque: Sep 14, 2026, 22:41 UTC

1 63926C 25098A   26257.94562500 -.00044011  00000+0 -15309-2 0  2571
2 63926  70.0002 155.5133 0003157 269.2758 157.7083 15.29603966    14

Suivez STARLINK-34012 en temps réel avec AllMySat

Download on the App Store